RH
54 51 51 50 55 66 76 79 78 82 92 86 70 62 50 44 51 58 53 54 55 50 33 28 29 34 38 37 30 25 19 14 13 12 11 10 9 8
67 72 73 78 77 88 89 82 73 72 68 59 51 55 62 73 59 54 54 45 37 27 30 32 36 37 32 25 21 21 16 14 12 11 7 7 5 5
75 82 86 91 88 85 82 81 67 41 43 45 56 59 52 42 48 38 27 25 31 31 33 39 44 27 21 21 20 14 11 10 7 6 6 6 6 6
93 88 88 88 86 84 79 72 69 61 48 49 47 35 29 28 25 24 28 31 32 34 37 44 21 19 21 18 13 9 8 6 6 6 7 8 7 8
81 78 75 75 78 77 72 58 45 35 31 33 31 35 24 25 26 29 30 32 34 43 50 27 23 21 19 12 8 7 6 6 8 7 7 8 8 9
78 83 83 83 84 85 68 62 58 58 54 43 46 32 26 25 29 32 39 46 53 52 29 23 20 19 15 10 6 6 7 7 7 8 8 8 8 9
95 89 83 85 84 75 60 51 51 45 37 34 27 29 31 38 37 45 50 60 51 24 25 23 20 12 9 7 7 7 7 7 7 8 7 7 8 8
92 88 81 86 74 63 80 71 47 38 41 36 36 36 48 44 50 58 60 48 23 26 21 22 14 8 7 8 8 7 7 6 6 7 7 7 8 10
98 89 95 74 72 89 68 53 59 45 38 40 51 50 50 60 59 60 54 33 22 23 20 12 8 7 8 8 7 7 6 7 7 7 8 9 11 13
98 98 82 84 86 70 70 66 58 49 52 57 68 58 68 67 60 59 34 25 22 21 12 8 8 8 9 7 7 8 7 8 8 8 9 12 14 16
100 90 100 86 82 68 73 70 64 60 75 74 72 71 76 70 65 35 24 23 24 19 9 8 9 9 8 8 8 9 8 8 9 10 13 14 16 19
90 96 89 90 74 71 68 80 72 83 85 90 78 93 76 69 37 25 25 21 20 9 9 10 9 8 8 8 9 8 8 9 11 14 16 18 19 22
91 96 92 78 72 76 83 76 84 88 88 93 97 82 67 41 26 26 23 20 11 9 10 10 8 8 9 8 8 8 8 10 15 16 18 20 23 25
100 93 78 84 88 88 86 86 99 95 98 96 79 65 36 30 28 23 20 13 9 10 10 10 8 9 9 7 7 8 9 14 16 18 20 22 24 28
95 89 98 100 100 91 100 100 98 98 98 74 64 30 31 30 25 19 12 10 11 10 10 9 9 10 7 7 8 9 13 15 18 20 22 26 28 31
100 100 100 100 100 100 100 100 100 92 80 53 35 32 30 26 20 14 11 11 11 11 10 10 11 8 7 8 9 13 15 17 19 22 24 28 31 32
100 100 100 100 100 100 100 96 90 72 56 38 31 28 28 21 15 11 13 12 12 11 11 11 10 7 9 9 12 15 17 19 22 23 27 30 31 31
100 100 100 100 100 100 100 86 74 59 41 36 29 27 22 17 12 12 12 12 12 12 12 10 8 9 10 12 15 17 19 20 22 26 29 31 34 34
100 100 100 100 100 92 73 62 52 42 37 29 27 23 20 15 12 13 12 12 12 12 11 9 9 10 11 15 17 19 19 21 26 28 30 32 34 34
100 100 100 92 87 69 54 42 38 32 29 28 21 25 16 13 12 11 12 12 12 11 10 9 10 11 14 16 19 20 22 24 26 28 31 33 35 36
97 81 75 61 52 42 38 32 31 29 26 22 25 20 16 14 12 11 12 12 12 10 8 10 11 13 17 18 20 22 24 24 25 26 28 30 31 33
55 47 49 51 39 34 30 31 26 24 22 25 22 17 14 12 11 12 12 13 10 9 10 10 12 16 19 20 22 23 25 26 24 24 25 26 28 31
44 43 35 36 33 32 29 26 23 25 29 26 19 15 12 11 11 12 13 11 8 9 10 11 14 19 20 21 22 25 26 23 22 23 22 25 28 31
Wind_Speed
57 58 60 63 67 70 73 75 77 78 82 86 88 85 89 95 98 98 103 105 110 115 115 121 127 130 134 136 138 138 137 136 138 138 138 133 126 120
61 64 68 69 72 75 77 79 80 79 82 86 90 91 98 101 104 107 111 113 116 120 125 130 135 140 140 138 137 142 144 141 136 131 122 115 111 105
70 71 72 73 75 77 79 80 77 77 78 92 93 96 100 103 108 112 114 116 124 129 134 138 145 142 139 144 146 145 134 127 121 116 110 105 100 90
71 73 75 76 78 81 82 85 82 83 86 92 98 103 108 111 110 112 120 126 130 136 141 146 141 143 146 148 142 127 119 113 107 99 93 90 83 76
76 77 79 80 83 83 84 84 91 98 99 101 104 108 113 113 118 124 129 134 138 144 147 144 148 150 148 142 129 118 107 99 92 85 81 74 70 63
81 83 84 85 90 93 94 96 100 102 104 109 112 114 118 121 125 131 135 140 144 146 145 150 152 152 144 131 115 100 92 84 79 74 69 63 58 52
87 88 89 93 97 100 102 103 105 108 112 115 119 122 127 131 134 139 142 144 145 145 146 155 149 138 125 117 104 91 84 77 72 67 62 56 51 46
93 95 98 102 106 107 108 110 110 112 115 122 126 130 135 139 142 145 149 150 144 149 152 156 142 124 115 103 94 85 79 72 65 59 54 49 43 39
101 102 105 109 111 114 115 117 118 119 124 129 132 137 142 146 148 151 152 154 156 157 155 139 122 110 102 93 86 78 69 62 56 51 48 43 38 34
106 108 112 114 116 118 119 119 121 127 131 136 140 144 148 151 153 155 154 152 158 157 145 125 115 103 95 87 79 72 64 55 51 47 42 36 32 30
111 115 117 120 121 120 120 122 127 131 136 140 145 150 152 156 157 157 157 158 157 153 131 118 105 97 88 80 72 66 59 51 46 41 35 31 28 27
116 119 122 122 121 122 124 127 131 134 138 143 149 151 156 159 159 160 160 158 155 131 117 107 97 88 81 73 65 60 53 46 40 34 30 27 25 24
122 122 121 121 123 126 128 132 135 138 142 147 150 153 157 159 160 162 161 156 134 122 108 100 90 81 75 67 61 54 47 39 33 29 26 24 22 22
119 121 124 124 128 131 135 137 139 143 147 150 154 156 158 157 160 161 156 137 122 109 98 89 82 76 70 62 54 47 39 34 30 26 23 21 19 19
121 124 126 128 131 136 138 141 145 148 149 154 156 159 158 159 161 153 136 120 107 97 89 82 75 70 62 54 46 40 33 30 27 24 21 19 20 20
125 126 127 132 134 138 142 147 149 151 153 156 159 158 159 160 156 140 122 110 100 91 83 76 70 62 54 46 39 33 29 27 25 23 20 19 20 20
128 129 132 135 139 143 147 149 151 155 157 159 159 159 160 155 139 123 109 103 94 85 78 71 64 55 47 40 33 29 27 25 23 21 19 19 20 20
131 135 137 141 145 148 149 154 157 158 160 159 158 158 148 134 124 112 103 94 85 79 72 65 57 48 41 34 29 26 26 23 20 19 18 18 19 21
138 141 144 145 149 152 154 155 157 159 158 157 156 149 138 126 112 102 93 87 79 73 66 58 50 42 35 30 27 26 24 21 20 20 20 19 20 20
144 145 147 150 152 154 155 153 154 155 156 153 142 130 124 114 102 94 86 79 72 66 59 52 43 37 32 28 27 24 22 21 21 20 18 19 19 19
147 149 150 154 152 152 150 152 152 153 149 137 127 122 112 101 92 85 79 72 66 59 53 46 39 33 29 26 25 23 22 22 20 20 19 20 21 19
151 152 149 148 151 151 150 151 150 142 132 124 118 108 98 91 84 78 71 66 59 52 47 40 35 29 27 25 24 22 21 21 21 20 18 18 18 18
146 147 150 149 149 149 147 140 132 125 118 113 105 97 90 84 77 70 66 60 53 46 41 35 30 27 25 23 22 21 21 19 18 17 16 17 18 19
Wind_Direction
291 292 292 292 293 293 292 292 293 294 296 299 301 299 302 304 305 302 304 302 302 305 306 305 306 307 306 304 302 300 298 297 295 295 294 293 292 291
289 289 289 288 288 289 290 291 293 296 299 300 304 300 299 301 304 303 303 303 306 307 307 308 309 309 308 307 307 306 303 302 301 299 297 295 294 291
287 287 288 289 290 290 292 293 295 297 300 305 303 303 301 301 302 305 307 308 311 309 312 312 312 310 310 310 308 306 305 303 302 300 297 296 294 294
290 289 291 292 294 294 296 295 296 300 302 302 302 302 303 304 306 307 310 311 312 313 313 312 312 313 312 309 309 308 307 304 302 300 297 296 295 293
294 295 296 298 299 300 300 301 303 304 305 306 304 304 305 306 309 311 313 314 314 314 314 314 315 314 313 312 312 310 307 305 302 301 300 298 296 294
296 299 301 299 301 302 301 302 303 303 304 304 305 306 308 309 312 314 315 315 315 315 316 316 317 316 315 312 312 311 309 307 306 306 303 299 297 294
299 300 300 299 302 302 304 304 305 305 305 306 308 310 311 314 314 314 314 316 317 317 318 317 317 315 314 314 314 312 310 309 307 306 303 301 298 296
300 301 301 303 302 304 304 304 305 305 308 308 309 311 312 312 314 314 317 319 316 318 320 319 316 315 315 315 315 315 313 312 309 306 303 301 298 293
300 302 303 302 303 304 304 304 307 308 308 309 310 311 312 313 315 317 318 319 320 321 321 319 317 318 316 317 316 317 316 314 311 308 304 300 294 288
301 302 301 303 303 304 305 307 307 309 310 310 311 311 313 313 316 318 319 320 322 321 321 319 319 318 318 317 318 316 316 314 310 306 301 296 289 283
299 299 301 301 302 304 305 306 307 308 308 309 310 311 313 315 317 319 319 321 321 320 320 319 318 317 317 317 317 315 315 312 307 301 294 289 283 279
298 298 299 300 302 303 304 305 306 307 307 308 310 312 313 316 318 319 320 320 321 320 320 319 319 317 317 318 315 313 312 308 302 296 291 286 281 275
296 296 297 300 302 303 303 304 304 306 307 308 309 312 314 316 318 318 319 321 321 319 318 317 317 317 318 317 313 312 308 303 296 291 287 283 277 270
294 296 298 300 300 301 302 304 305 306 307 309 310 313 314 316 317 318 320 320 319 319 318 317 317 317 316 313 312 309 304 298 293 289 284 277 268 257
294 296 297 298 300 301 303 304 305 307 308 310 311 313 314 315 317 319 318 320 319 317 317 316 317 316 313 313 309 305 299 295 291 287 280 270 260 252
293 295 296 298 300 300 303 304 305 307 308 310 311 314 314 316 317 317 320 318 318 317 317 317 316 314 313 310 306 300 297 294 289 282 271 260 254 255
293 295 296 298 300 301 301 303 304 307 308 310 312 314 315 317 315 318 318 318 317 317 317 316 316 314 312 308 303 299 296 289 282 275 267 258 256 257
293 294 296 298 299 301 302 303 306 307 308 310 312 314 315 315 316 317 317 316 316 315 316 315 315 313 309 305 302 298 292 284 276 266 258 256 257 255
293 294 296 298 299 300 302 303 304 306 308 310 312 312 313 314 316 316 315 315 315 314 314 314 313 310 305 304 300 296 289 281 270 265 262 260 258 260
293 294 295 298 298 300 301 304 304 306 308 310 311 311 312 314 315 314 313 313 313 313 313 312 310 306 304 303 298 292 283 274 268 266 261 257 254 252
292 294 295 295 298 299 302 303 305 307 307 310 309 310 311 313 312 312 313 312 312 312 311 309 306 304 302 299 293 284 277 275 270 265 258 252 246 242
291 293 295 295 297 299 302 302 305 305 307 308 309 308 310 311 310 312 312 311 310 310 308 305 304 300 299 295 287 279 275 274 270 265 258 251 245 235
291 292 293 296 297 299 301 301 303 305 306 306 306 307 308 309 310 311 310 309 309 308 305 302 299 296 294 288 281 277 274 273 270 263 253 241 231 224